COSMOS 2557 (706K)

Last updated on Mon Sep 07 2026 00:02:49 GMT+0000 (Coordinated Universal Time)

1 52984U 22075A 26248.82167675 -.00000031 00000+0 00000+0 0 9991 2 52984 64.2461 311.6422 0012330 269.3445 90.5845 2.13102228 32438
UTC large
Height (km)
Speed (km/s)
/
Latitude / Longitude
Inclination (degrees)
Orbital Period (minutes)
Azimuth
Elevation
Range (km)
Doppler Factor

Next 0 passes for location: London (51.5072 / 0.1276)

No passes found over London.
COSMOS 2557 (706K)